When you browse on this site, cookies collect data to enhance your experience and personalize the content and advertising you see.
Visit our Privacy Policy to learn more. By continuing to use the site, you agree to this use of cookies and data.
  • Em Portugal
  • Lista de países
  • Para 7 dias
  • Temperatura da água
  • Mapas de satélite
  • Mapa do tempo
  • Widgets de tempo
  • user-avatar
    Iniciar Sessão

    Previsão horária em Klagenfurt

    Hoje, 22 Janeiro, Terça-feira

    Tempo Temperatura Precipitação Vento Pressão Humidade
    00:00 -4°C° 0 mm 1 m/s 687 mmHg 89%
    01:00 -4°C° 0 mm 1 m/s 687 mmHg 90%
    02:00 -4°C° 0 mm 1 m/s 687 mmHg 90%
    03:00 -6°C° 0 mm 1 m/s 686 mmHg 89%
    04:00 -6°C° 0 mm 1 m/s 686 mmHg 89%
    05:00 -6°C° 0 mm 1 m/s 685 mmHg 89%
    06:00 -6°C° 0 mm 1 m/s 685 mmHg 89%
    07:00 -6°C° 0 mm 1 m/s 685 mmHg 89%
    08:00 -4°C° 0 mm 1 m/s 685 mmHg 83%
    09:00 -3°C° 0 mm 1 m/s 684 mmHg 78%
    10:00 -3°C° 0 mm 1 m/s 684 mmHg 72%
    11:00 -2°C° 0 mm 1 m/s 684 mmHg 67%
    12:00 -1°C° 0 mm 1 m/s 683 mmHg 63%
    13:00 -3°C° 0 mm 2 m/s 683 mmHg 62%
    14:00 -3°C° 0 mm 2 m/s 682 mmHg 63%
    15:00 -1°C° 0 mm 1 m/s 681 mmHg 65%
    16:00 -2°C° 0 mm 1 m/s 681 mmHg 67%
    17:00 -2°C° 0.1 mm 1 m/s 680 mmHg 72%
    18:00 -3°C° 0.1 mm 1 m/s 680 mmHg 76%
    19:00 -4°C° 0.1 mm 1 m/s 680 mmHg 81%
    20:00 -4°C° 0.3 mm 1 m/s 679 mmHg 83%
    21:00 -4°C° 0.3 mm 1 m/s 679 mmHg 84%
    22:00 -4°C° 0.3 mm 1 m/s 679 mmHg 85%
    23:00 -4°C° 0.4 mm 1 m/s 678 mmHg 86%

    Amanhã, 23 Janeiro, Quarta-feira

    Tempo Temperatura Precipitação Vento Pressão Humidade
    00:00 -4°C° 0.4 mm 1 m/s 678 mmHg 86%
    01:00 -4°C° 0.4 mm 1 m/s 677 mmHg 87%
    02:00 -4°C° 0.4 mm 1 m/s 677 mmHg 88%
    03:00 -4°C° 0.4 mm 1 m/s 676 mmHg 88%
    04:00 -4°C° 0.4 mm 1 m/s 676 mmHg 88%
    05:00 -4°C° 0.3 mm 1 m/s 676 mmHg 88%
    06:00 -4°C° 0.3 mm 1 m/s 675 mmHg 89%
    07:00 -4°C° 0.3 mm 1 m/s 675 mmHg 89%
    08:00 -4°C° 0.4 mm 1 m/s 675 mmHg 87%
    09:00 -4°C° 0.4 mm 1 m/s 675 mmHg 85%
    10:00 -3°C° 0.4 mm 1 m/s 675 mmHg 83%
    11:00 -3°C° 0.3 mm 1 m/s 675 mmHg 81%
    12:00 -2°C° 0.3 mm 1 m/s 675 mmHg 80%
    13:00 -1°C° 0.3 mm 1 m/s 674 mmHg 78%
    14:00 -2°C° 0.1 mm 1 m/s 674 mmHg 79%
    15:00 -2°C° 0.1 mm 1 m/s 674 mmHg 81%
    16:00 -2°C° 0.1 mm 1 m/s 674 mmHg 83%
    17:00 -2°C° 0.2 mm 1 m/s 674 mmHg 86%
    18:00 -3°C° 0.2 mm 1 m/s 674 mmHg 90%
    19:00 -3°C° 0.2 mm 1 m/s 674 mmHg 93%
    20:00 -4°C° 0.1 mm 1 m/s 675 mmHg 93%
    21:00 -4°C° 0.1 mm 1 m/s 675 mmHg 93%
    22:00 -4°C° 0.1 mm 1 m/s 675 mmHg 94%
    23:00 -4°C° 0.1 mm 1 m/s 675 mmHg 93%

    Depois de amanhã, 24 Janeiro, Quinta-feira

    Tempo Temperatura Precipitação Vento Pressão Humidade
    00:00 -4°C° 0.1 mm 1 m/s 675 mmHg 93%
    01:00 -6°C° 0.1 mm 1 m/s 675 mmHg 92%
    02:00 -6°C° 0 mm 1 m/s 675 mmHg 92%
    03:00 -6°C° 0 mm 1 m/s 675 mmHg 91%
    04:00 -7°C° 0 mm 1 m/s 675 mmHg 91%
    05:00 -7°C° 0 mm 1 m/s 675 mmHg 90%
    06:00 -7°C° 0 mm 1 m/s 675 mmHg 89%
    07:00 -7°C° 0 mm 1 m/s 676 mmHg 89%
    08:00 -6°C° 0 mm 1 m/s 676 mmHg 84%
    09:00 -3°C° 0 mm 1 m/s 677 mmHg 79%
    10:00 -4°C° 0 mm 2 m/s 677 mmHg 74%
    11:00 -3°C° 0 mm 2 m/s 677 mmHg 71%
    12:00 -2°C° 0 mm 2 m/s 677 mmHg 68%
    13:00 -1°C° 0 mm 2 m/s 677 mmHg 64%
    14:00 -2°C° 0 mm 2 m/s 677 mmHg 67%
    15:00 0°C° 0 mm 1 m/s 677 mmHg 70%
    16:00 0°C° 0 mm 1 m/s 677 mmHg 73%
    17:00 -1°C° 0 mm 1 m/s 677 mmHg 77%
    18:00 -2°C° 0 mm 1 m/s 678 mmHg 80%
    19:00 -3°C° 0 mm 1 m/s 678 mmHg 84%
    20:00 -5°C° 0 mm 2 m/s 678 mmHg 83%
    21:00 -6°C° 0 mm 2 m/s 679 mmHg 83%
    22:00 -6°C° 0 mm 2 m/s 679 mmHg 83%
    23:00 -6°C° 0 mm 2 m/s 679 mmHg 81%

    25 Janeiro, Sexta-feira

    Tempo Temperatura Precipitação Vento Pressão Humidade
    00:00 -7°C° 0 mm 2 m/s 679 mmHg 80%
    01:00 -7°C° 0 mm 2 m/s 679 mmHg 78%
    02:00 -7°C° 0 mm 2 m/s 679 mmHg 77%
    03:00 -7°C° 0 mm 2 m/s 678 mmHg 76%
    04:00 -7°C° 0 mm 2 m/s 678 mmHg 75%
    05:00 -7°C° 0 mm 2 m/s 679 mmHg 75%
    06:00 -7°C° 0 mm 2 m/s 679 mmHg 75%
    07:00 -7°C° 0 mm 2 m/s 679 mmHg 74%
    08:00 -6°C° 0.1 mm 2 m/s 679 mmHg 72%
    09:00 -6°C° 0.1 mm 2 m/s 680 mmHg 69%
    10:00 -5°C° 0.1 mm 2 m/s 680 mmHg 66%
    11:00 -4°C° 0 mm 2 m/s 680 mmHg 63%
    12:00 -3°C° 0 mm 2 m/s 680 mmHg 61%
    13:00 -2°C° 0 mm 2 m/s 680 mmHg 58%
    14:00 -3°C° 0 mm 2 m/s 680 mmHg 61%
    15:00 -3°C° 0 mm 2 m/s 681 mmHg 63%
    16:00 -3°C° 0 mm 2 m/s 681 mmHg 66%
    17:00 -4°C° 0 mm 2 m/s 681 mmHg 68%
    18:00 -5°C° 0 mm 2 m/s 681 mmHg 71%
    19:00 -5°C° 0 mm 2 m/s 682 mmHg 73%
    20:00 -5°C° 0 mm 2 m/s 682 mmHg 72%
    21:00 -6°C° 0 mm 2 m/s 683 mmHg 72%
    22:00 -6°C° 0 mm 2 m/s 683 mmHg 71%
    23:00 -6°C° 0 mm 2 m/s 683 mmHg 72%

    26 Janeiro, Sábado

    Tempo Temperatura Precipitação Vento Pressão Humidade
    00:00 -6°C° 0 mm 2 m/s 683 mmHg 72%
    01:00 -6°C° 0 mm 2 m/s 683 mmHg 72%
    02:00 -7°C° 0 mm 2 m/s 683 mmHg 72%
    03:00 -7°C° 0 mm 2 m/s 684 mmHg 72%
    04:00 -7°C° 0 mm 2 m/s 684 mmHg 71%
    05:00 -7°C° 0 mm 2 m/s 684 mmHg 72%
    06:00 -7°C° 0 mm 2 m/s 684 mmHg 73%
    07:00 -8°C° 0 mm 2 m/s 684 mmHg 74%
    08:00 -7°C° 0 mm 2 m/s 685 mmHg 69%
    09:00 -5°C° 0 mm 2 m/s 685 mmHg 65%
    10:00 -4°C° 0 mm 2 m/s 686 mmHg 61%
    11:00 -3°C° 0 mm 2 m/s 685 mmHg 59%
    12:00 -2°C° 0 mm 2 m/s 685 mmHg 57%
    13:00 -1°C° 0 mm 2 m/s 685 mmHg 55%
    14:00 -1°C° 0 mm 2 m/s 685 mmHg 59%
    15:00 0°C° 0 mm 1 m/s 685 mmHg 62%
    16:00 0°C° 0 mm 1 m/s 685 mmHg 65%
    17:00 -2°C° 0 mm 1 m/s 685 mmHg 69%
    18:00 -3°C° 0 mm 1 m/s 685 mmHg 73%
    19:00 -4°C° 0 mm 1 m/s 685 mmHg 77%
    20:00 -4°C° 0 mm 1 m/s 685 mmHg 77%
    21:00 -6°C° 0 mm 1 m/s 685 mmHg 76%
    22:00 -6°C° 0 mm 1 m/s 685 mmHg 76%
    23:00 -6°C° 0 mm 1 m/s 684 mmHg 75%

    27 Janeiro, Domingo

    Tempo Temperatura Precipitação Vento Pressão Humidade
    00:00 -6°C° 0 mm 1 m/s 684 mmHg 74%
    01:00 -7°C° 0 mm 1 m/s 684 mmHg 74%
    02:00 -7°C° 0 mm 1 m/s 683 mmHg 73%
    03:00 -7°C° 0 mm 0 m/s 683 mmHg 73%
    04:00 -7°C° 0 mm 0 m/s 682 mmHg 73%
    05:00 -7°C° 0 mm 0 m/s 682 mmHg 73%
    06:00 -7°C° 0 mm 0 m/s 682 mmHg 74%
    07:00 -7°C° 0 mm 0 m/s 682 mmHg 74%
    08:00 -5°C° 0 mm 0 m/s 682 mmHg 71%
    09:00 -4°C° 0 mm 0 m/s 682 mmHg 69%
    10:00 -3°C° 0 mm 0 m/s 682 mmHg 66%
    11:00 -2°C° 0 mm 0 m/s 682 mmHg 66%
    12:00 0°C° 0 mm 1 m/s 682 mmHg 65%
    13:00 +1°C° 0 mm 1 m/s 681 mmHg 65%
    14:00 0°C° 0.1 mm 1 m/s 681 mmHg 69%
    15:00 0°C° 0.1 mm 1 m/s 681 mmHg 73%
    16:00 -1°C° 0.1 mm 1 m/s 681 mmHg 77%
    17:00 -1°C° 0.1 mm 1 m/s 681 mmHg 81%
    18:00 -2°C° 0.1 mm 1 m/s 681 mmHg 85%
    19:00 -3°C° 0.1 mm 1 m/s 681 mmHg 88%
    20:00 -3°C° 0.1 mm 1 m/s 682 mmHg 89%
    21:00 -4°C° 0.1 mm 0 m/s 682 mmHg 89%
    22:00 -4°C° 0.1 mm 0 m/s 682 mmHg 89%
    23:00 -4°C° 0.2 mm 0 m/s 682 mmHg 90%
    Mostrar mais